Location: Boiro
(42.6475°N, 8.8834°W)
Time: 12:02:48
(UTC+02:00)

deb Agena D - Pass Details

Date: 05 July 2022
Orbit: 997 x 1025 km, 100.1° (Epoch: 16 August)

Event Time Altitude Azimuth Distance (km) Brightness Sun altitude
Exits shadow 01:27:11 42° 146° (SE) 1,425 ? -22.4°
Maximum altitude 01:29:29 75° 72° (ENE) 1,063 ? -22.6°
Drops below altitude 10° 01:35:50 10° 348° (NNW) 2,827 ? -22.9°
Sets 01:38:21 0° 347° (NNW) 3,782 ? -23.0°
